User: anonymous   Login
Location: Writing-on-Stone Provincial Park
(49.0825°N, 111.6163°W)
Time: 05:39:58
(UTC-07:00)
Language:

BREEZE-M DEB (TANK) - Orbit

View from above orbital plane
View from above orbital plane
View from above satellite
View from above satellite

Ground track
Ground track

The orbit data is extracted from the following two-line orbital elements,

1 29649U 06056B   18019.10960592 +.00001937 +00000-0 +25435-3 0  9990
2 29649 049.5036 075.5591 5393363 296.5075 018.6603 05.00102371198569
Epoch (UTC): 19 January 2018 02:37:49
Eccentricity: 0.5393363
inclination: 49.5036°
perigee height: 276 km
apogee height: 15856 km
right ascension of ascending node: 75.5591°
argument of perigee: 296.5075°
revolutions per day: 5.00102371
mean anomaly at epoch: 18.6603°
orbit number at epoch: 19856

The dashed part of the orbit path shows where the satellite is in the earth's shadow,  

DLR